Regional Weather Roundup
Issued by NWS Charleston, SC

Current Version | Previous Version | Text Only | Print | Product List | Glossary Off
Versions: 1 2 3 4 5 6 7 8 9 10 11 12 13 14 15 16 17 18 19 20 21 22 23 24 25 26 27 28 29 30 31 32 33 34 35 36 37 38 39 40 41 42 43 44 45 46 47 48 49 50
000 ASUS42 KCHS 180112 RWRCHS Regional Weather Roundup National Weather Service Charleston SC 800 PM EST SAT FEB 17 2018 NOTE: "fair" indicates few or no clouds below 12,000 feet with no significant weather and/or obstructions to visibility. Not all stations are quality controlled. Use data with caution, especially dewpoint observations. SCZ027-030-031-034>040-042>050-180200- ...Southeast South Carolina... CITY SKY/WX TMP DP RH WIND PRES REMARKS N Charleston CLOUDY 60 59 96 S9 30.10S Waterfront Prk N/A 58 58 100 SE5 29.97S Mount Pleasant FOG 59 59 100 SE8 30.11S VSB 1/4 Johns Island FOG 59 59 100 S9 30.11S VSB 1/4 Pinopolis N/A N/A N/A N/A S5 29.98F Moncks Corner FAIR 61 59 94 S9 30.08S Summerville FAIR 63 59 88 S7 30.09S Beaufort MCAS FAIR 61 60 97 S7 30.10S Beaufort Arpt CLOUDY 59 57 94 S12 30.10S FOG Hilton Head Is CLOUDY 59 59 100 S6 30.12S FOG Walterboro FAIR 61 59 94 S5 30.09S Allendale FAIR 72 59 64 CALM 30.06R ...Southern Midlands and Pee Dee... CITY SKY/WX TMP DP RH WIND PRES REMARKS Georgetown FOG 54 54 100 SE3 30.11S VSB 3/4 Kingstree FAIR 55 55 100 SE6 30.08R Orangeburg FAIR 67 61 81 S8 30.05R Barnwell N/A 73 61 64 SW7 30.07R Aiken FAIR 61 59 94 NW5 30.10R Manning FAIR 59 37 44 MISG 30.07S Columbia MOCLDY 64 59 83 NW6 30.06R Sumter MOCLDY 62 55 80 N3 30.05R Florence MOCLDY 57 54 89 S3 30.08R Myrtle Beach CLOUDY 55 54 96 SE6 30.11R FOG N Myrtle Beach CLOUDY 55 53 93 SE5 30.09S FOG $$ GAZ063-065-086>088-099>101-113>116-118-119-134>141-150-180200- ...Southeast Georgia... CITY SKY/WX TMP DP RH WIND PRES REMARKS Savannah Arpt FAIR 65 61 87 S7 30.11S Hunter AAF FAIR 62 60 91 S3 30.09S Fort Stewart FAIR 70 59 67 SW6 30.11R Statesboro FAIR 72 57 60 SW7 30.10R Sylvania FAIR 72 63 73 SW5 30.10R Claxton FAIR 72 63 72 S3 30.11R ...CSRA, Central and far Southeast Georgia... CITY SKY/WX TMP DP RH WIND PRES REMARKS Thomson FAIR 58 55 89 NE3 30.13R Augusta-Bush FAIR 64 58 80 N6 30.06R Augusta-Daniel FAIR 63 56 78 NW5 30.07R Swainsboro FAIR 72 61 68 SW6 30.11R Vidalia FAIR 70 63 78 SW7 30.12R Eastman FAIR 69 57 64 SW3 30.14R Hazlehurst FAIR 69 60 72 SW7 30.11S Alma FAIR 64 61 90 CALM 30.13S Waycross FAIR 67 64 90 CALM 30.14S Jesup NOT AVBL Baxley FAIR 64 64 100 SW3 30.13S Brunswick FAIR 70 59 68 SW5 30.15S Saint Simons FAIR 64 60 87 S3 30.15R $$ SCZ027-028-034-036>038-045-046-048>050-GAZ119-141-180200- ...Lake and Supplemental Coastal Observations... STATION/POSITION TIME TEMP WIND PRES WAVE SWELL AIR SEA DIR/SP/G HT/PER HT/PER/DIR (UTC) (F) (DEG/KT/KT) (MB) (FT/S) (FT/S/D) Winyah Bay 2345 56 100/ 3 1020.0 Lake Murray 0020 57 350/ 2/ 7 1017.6 ACE Basin NERRS 2345 59 140/ 3 1019.0 Fort Pulaski 0048 210/ 5/ 8 N/A Sapelo Island 0000 64 160/ 6 1020.0 $$ ANZ835-935-AMZ111-154-330-350-352-354-370-450-454-472-180200- ...C-MAN and Buoy Observations... STATION/POSITION TIME TEMP WIND PRES WAVE SWELL AIR SEA DIR/SP/G HT/PER HT/PER/DIR (UTC) (F) (DEG/KT/KT) (MB) (FT/S) (FT/S/D) Buoy 41004 0050 67 210/ 14/ 17 1019.6F 5/ 7 3/ 50/ 7 Buoy 41008 2350 59 58 170/ 12/ 14 1019.9 2/10 2/ 90/10 Folly Beach CMAN 0000 58 130/ 7/ 8 1020.2F Capers Nearshore 0008 54 56 150/ 8/ 12 1019.3F Fripp Nearshore 0008 54 56 200/ 8/ 10 1020.6R STATION/POSITION TIME TEMP WIND PRES WAVE SWELL AIR SEA DIR/SP/G HT/PER HT/PER/DIR (UTC) (F) (DEG/KT/KT) (MB) (FT/S) (FT/S/D) 5E St. Marys GA 0100 59 N/A 2/10 2/120/11 Frying Pan Buoy 0050 59 67 20/ 2/ 4 1019.2F 4/ 7 3/ 50/ 7 Buoy 41025 0050 71 69 160/ 21/ 27 1017.8F 5/11 3/ 70/11 Cape Lookout NC 0000 360/ 5/ 6 1019.3F Buoy 41002 2350 73 73 230/ 12/ 16 1021.2 6/ 8 5/350/ 8 Buoy 41010 NOT AVBL St Augustine FL 0000 74 60 260/ 4/ 7 1021.7R $$

USA.gov is the U.S. government's official web portal to all federal, state and local government web resources and services.